Find Starlink 35233

NORAD ID: 65678 Int'l Des: 2025-212 Owner: SPXS Country: US Constellation: starlink operational
LEOCIRCULAR

リアルタイム位置

3D地球を読み込み中...

Starlink 35233について

説明を読み込み中...

次回通過

Passes for default location (London). Set your location on the main map for personalized predictions.

高度履歴

Loading altitude history...

軌道要素

1 65678U 25212C 26106.86119837 .00011730 00000-0 40740-3 0 9992
2 65678 53.1582 168.6661 0001279 69.4507 290.6631 15.30210505 33096
Epoch: Apr 16, 2026 • Age: 10 hours

現在のステータス

高度 482.3 km
速度 7.62 km/s
衛星直下点 -22.90°S, 54.85°E
打ち上げ日 Sep 21, 2025
運用期間 0.5 years
タイプ internet

技術仕様

分類 Payload
質量 575.00 kg
乾燥質量 530.00 kg
総質量 575.00 kg
長さ 0.30 m
直径 4.10 m
スパン 29.00 m
形状 Box + pan
製造者 SPXS
バスタイプ Starlink V2MO
フェーズステータス In Orbit
所有者/国 SPXS/US

Most Searched